Regional Weather Roundup
Issued by NWS New Orleans/Baton Rouge, LA

Home | Current Version | Previous Version | Text Only | Print | Product List | Glossary On
Versions: 1 2 3 4 5 6 7 8 9 10 11 12 13 14 15 16 17 18 19 20 21 22 23 24 25 26 27 28
000
ASUS44 KLIX 251511
RWRLIX
NEW ORLEANS REGIONAL WEATHER ROUNDUP
NATIONAL WEATHER SERVICE NEW ORLEANS LA
1000 AM CDT MON JUL 25 2016

NOTE: "FAIR" INDICATES FEW OR NO CLOUDS BELOW 12,000 FEET WITH NO
      SIGNIFICANT WEATHER AND/OR OBSTRUCTIONS TO VISIBILITY.
      SKY/WX - SKY CONDITION AND SIGNIFICANT WEATHER.
      TMP - AIR TEMPERATURE.     DP    - DEWPOINT TEMPERATURE.
      RH  - RELATIVE HUMIDITY.   PRES  - PRESSURE.
      HI  - HEAT INDEX.          WCI   - WIND CHILL INDEX.

*  THESE STATIONS ARE NOT NWS OR FAA STATIONS AND ARE NOT UNDER
   NWS QUALITY CONTROL.

LAZ038-040-048-061>063-065>067-069-251600-
SOUTHEAST LOUISIANA

CITY           SKY/WX    TMP DP  RH WIND       PRES   REMARKS
N.O. AUDUBON   NOT AVBL
N.O. INTL ARPT CLOUDY    85  76  74 NE10      29.98F
N.O. LAKEFRONT CLOUDY    85  76  74 E6        29.99F
N.O. DOWNTOWN*   N/A     84  76  76 CALM      29.99F
RESERVE*         N/A     82  79  91 E5        29.98F
SLIDELL        CLOUDY    82  78  88 E7        29.99S
BATON ROUGE    PTSUNNY   86  75  69 N10       29.98F HX  95
BOOTHVILLE     MOSUNNY   86  76  71 VRB5      29.98F HX  96
BELLE CHASSE   CLOUDY    85  79  82 NE8       29.97F HX  98
BOGALUSA*      PTSUNNY   84  76  78 CALM      30.01F
GALLIANO*      LGT RAIN  73  73 100 E3        29.97F
NEW ROADS*       N/A     85  76  76 E6        29.98F
GONZALES*      PTSUNNY   84  77  79 N5        29.97F
HAMMOND*       MOSUNNY   88  73  62 NE8       29.98F HX  96
HOUMA*         PTSUNNY   82  79  89 NE5       29.97F
PORT FOURCHON* NOT AVBL

$$

MSZ070-080>082-251600-
SOUTHERN MISSISSIPPI

CITY           SKY/WX    TMP DP  RH WIND       PRES   REMARKS
MCCOMB         MOSUNNY   84  75  74 VRB6      30.01F
GULFPORT       PTSUNNY   84  75  74 E6        29.99S
BILOXI         PTSUNNY   83  78  86 E7        30.00R
PASCAGOULA     LGT RAIN  83  78  85 CALM      30.00S
STENNIS ARPT*  PTSUNNY   81  73  78 VRB5      30.00S

$$

COASTAL OBSERVATIONS
LAKE AND NEARSHORE STATIONS

STATION/POSITION TIME  TEMP    WIND        PRES    WAVE
                       AIR SEA DIR/SP/G            HT/PER
                 (UTC) (F)     (DEG/KT/KT) (MB)    (FT/S)
PASCAGOULA       1400   82      60/ 13/ 17 1015.2
WAVELAND YACHT   1400   80 85   70/  9/ 10 1015.5
GRAND ISLE       1400   84 88   90/  4/  5 1015.2
SOUTHWEST PASS   1400          250/  5/  7   N/A
NEW CANAL        1400   82 87   CALM  /  1 1014.9
SHELL BEACH      1400   82 87   70/  9/ 10 1015.3

OFFSHORE STATIONS

STATION/POSITION TIME  TEMP    WIND        PRES    WAVE
                       AIR SEA DIR/SP/G            HT/PER
                 (UTC) (F)     (DEG/KT/KT) (MB)    (FT/S)
64 S DAUPHIN ISL 1500   85 87  100/  8/ 10 1015.0

$$





USA.gov is the U.S. government's official web portal to all federal, state and local government web resources and services.